TimeCST,TemperatureF,Dew PointF,Humidity,Sea Level PressureIn,VisibilityMPH,Wind Direction,Wind SpeedMPH,Gust SpeedMPH,PrecipitationIn,Events,Conditions,WindDirDegrees,DateUTC
12:19 AM,37.4,32.0,81,30.38,9.0,WNW,4.6,-,N/A,,Overcast,300,2013-12-31 06:19:00
12:53 AM,36.0,32.0,86,30.37,9.0,NW,4.6,-,N/A,,Overcast,320,2013-12-31 06:53:00
1:12 AM,35.6,32.0,87,30.38,9.0,NW,3.5,-,N/A,,Overcast,320,2013-12-31 07:12:00
1:53 AM,37.0,32.0,82,30.37,9.0,Calm,Calm,-,N/A,,Overcast,0,2013-12-31 07:53:00
2:53 AM,35.1,30.9,85,30.37,9.0,NNW,3.5,-,N/A,,Mostly Cloudy,340,2013-12-31 08:53:00
3:41 AM,35.6,30.2,81,30.38,10.0,NNW,6.9,-,N/A,,Overcast,330,2013-12-31 09:41:00
3:53 AM,35.1,30.9,85,30.38,10.0,NNW,4.6,-,N/A,,Overcast,330,2013-12-31 09:53:00
4:40 AM,35.6,30.2,81,30.39,9.0,North,4.6,-,N/A,,Mostly Cloudy,350,2013-12-31 10:40:00
4:53 AM,35.1,30.0,82,30.38,9.0,North,6.9,-,N/A,,Scattered Clouds,350,2013-12-31 10:53:00
5:53 AM,34.0,28.9,82,30.40,9.0,North,3.5,-,N/A,,Clear,350,2013-12-31 11:53:00
6:53 AM,34.0,30.0,85,30.43,8.0,North,4.6,-,N/A,,Mostly Cloudy,350,2013-12-31 12:53:00
7:53 AM,35.1,30.0,82,30.43,7.0,Calm,Calm,-,N/A,,Overcast,0,2013-12-31 13:53:00
8:53 AM,36.0,30.0,79,30.45,9.0,NNE,5.8,-,N/A,,Scattered Clouds,30,2013-12-31 14:53:00
9:53 AM,37.9,30.0,73,30.45,10.0,ENE,6.9,-,N/A,,Clear,60,2013-12-31 15:53:00
10:53 AM,39.9,30.9,70,30.43,10.0,Variable,3.5,-,N/A,,Clear,0,2013-12-31 16:53:00
11:53 AM,42.1,30.9,65,30.41,10.0,NNE,6.9,-,N/A,,Clear,20,2013-12-31 17:53:00
12:53 PM,43.0,28.9,58,30.39,10.0,Variable,4.6,-,N/A,,Clear,0,2013-12-31 18:53:00
1:53 PM,45.0,28.9,53,30.38,10.0,NE,4.6,-,N/A,,Clear,50,2013-12-31 19:53:00
2:53 PM,45.0,28.0,52,30.37,10.0,ENE,4.6,-,N/A,,Clear,70,2013-12-31 20:53:00
3:53 PM,45.0,28.0,52,30.36,10.0,Calm,Calm,-,N/A,,Clear,0,2013-12-31 21:53:00
4:53 PM,43.0,28.9,58,30.37,10.0,Calm,Calm,-,N/A,,Clear,0,2013-12-31 22:53:00
5:53 PM,42.1,30.9,65,30.37,10.0,Calm,Calm,-,N/A,,Clear,0,2013-12-31 23:53:00
6:53 PM,42.1,30.9,65,30.36,10.0,Calm,Calm,-,N/A,,Clear,0,2014-01-01 00:53:00
7:53 PM,41.0,32.0,70,30.36,10.0,Calm,Calm,-,N/A,,Clear,0,2014-01-01 01:53:00
8:53 PM,41.0,30.9,67,30.36,10.0,ESE,3.5,-,N/A,,Clear,110,2014-01-01 02:53:00
9:53 PM,41.0,32.0,70,30.35,10.0,ESE,3.5,-,N/A,,Clear,120,2014-01-01 03:53:00
10:53 PM,41.0,32.0,70,30.33,9.0,ESE,4.6,-,N/A,,Clear,110,2014-01-01 04:53:00
11:53 PM,41.0,32.0,70,30.30,10.0,ESE,6.9,-,N/A,,Clear,120,2014-01-01 05:53:00